Погода Ливны

Погода Ливны : погода сейчас, прогноз погоды и архив. Всё, что Вы хотите узнать о погоде Ливны!

Хотите узнать прогноз погоды Ливны? Тогда Вам сюда: Погода Ливны

Поиск расширенной информации на нашем сайте:

Другие новости

Новости СМИ2

Главная страница сайта

Новости сайта

03.07.2017

Напоминаем, что на нашем специализированном сайте Метеоцентр.Азия вы можете получить высокодетализированные автоматические прогнозы погоды по пунктам России, СНГ и мира в авиационном формате (включающие направление и скорость ветра, видимость, явления погоды, количество и форму облачности, нижнюю и верхнюю границу облачности).

Рекомендуем: биолан

Погода Ливны - сегодня

Время (UTC), дата Ветер
(°,м/с) 
Видим.   Явления Облачность Т
(°С)
Тd
(°С)
f(%) Тe
(°С)
Pmin
(гПа)
dP
(гПа)
Po
(мм)
O2
(г/м3)
Тmin Tmax R s Состояние
почвы
09 20.01.18 180 (Ю) 4000 м  слаб. снег  10/10 300 м 
[Ns]
-4.6 -5.9 91 -6  1011.2  741  304           
12 20.01.18 220 (ЮЗ) 10 км  слаб. снег  10/10 600 м 
[Ns]
-1.6 -3.3 88 -4  1010.8  741  301           
15 20.01.18 210 (ЮЗ) 10 км  слаб. снег  10/10 600 м 
[Ns]
-1.8 -5.2 78 -4  1011.8  742  302         
18 20.01.18 210 (ЮЗ) 10 км  {снег}  10/10 600 м 
[Sc]
-2.2 -5.1 80 -5  1012  0.2  742  302    -1.6     
21 20.01.18 200 (Ю) 10 км    10/10 600 м 
[Sc]
-2.5 -4.4 87 -5  1012.2  742  302           
00 21.01.18 220 (ЮЗ) 10 км    4/3 600 м верхняя 
[Sc|Ci fib]
-4.2 -5.8 89 -4  1011.7  -0.5  742  304           
03 21.01.18 340 (С) 10 км    9/9 600 м 
[Sc]
-7.2 -8.5 90 -7  1010.8  -1.2  741  307  -8.6    0.0     
06 21.01.18 360 (С) 10 км    10/10 600 м 
[Sc]
-5.4 -6.4 93 -7  1010.2  -0.5  740  305  -8.6      равномерный
сухой снег
100% 
09 21.01.18 360 (С) 20000 м    10/10 600 м 
[Sc]
-3.2 -6 81 -5  1008.7  -1.2  740  302           
12 21.01.18 330 (СЗ) 20000 м    10/10 600 м 
[Sc]
-3 -6.4 77 -7  1008  -0.7  739  302           
15 21.01.18 310 (СЗ) 10 км    10/10 600 м 
[Sc]
-3.1 -6.9 75 -6  1009.4  1.4  740  302           
18 21.01.18 290 (З) 10 км    10/10 600 м 
[Sc]
-5.6 -8.2 82 -8  1011.1  1.4  741  306    -2.8       
21 21.01.18 290 (З) 10 км    9/9 600 м 
[Sc]
-4.2 -6.5 84 -6  1012.9  743  305           
00 22.01.18 260 (З) 10 км    10/10 600 м 
[Sc]
-4.5 -6.8 84 -6  1015.2  744  306           
03 22.01.18 310 (СЗ) 10 км    10/10 600 м 
[Sc]
-4.3 -7.3 80 -7  1016.1  1.1  745  306  -5.6         
06 22.01.18 300 (СЗ) 10 км    10/10 600 м 
[Sc]
-5.4 -8.3 80 -7  1018.3  746  308  -5.6      равномерный
сухой снег
100% 
09 22.01.18 290 (З) 10 км  слаб. снег  10/10 600 м 
[Ns]
-5.2 -8.5 78 -7  1019.4  1.1  747  308           
12 22.01.18 280 (З) 10 км  слаб. снег  10/10 600 м 
[Ns]
-5.4 -9.6 72 -5  1020.6  1.1  748  308           
15 22.01.18 360 (С) 10 км  {снег}  10/10 600 м 
[Sc]
-6.7 -9.5 80 -8  1021.3  0.5  749  310      0.2     
18 22.01.18 020 (С) 10 км  {снег}  10/10 600 м 
[Sc]
-6.6 -9 83 -8  1022  0.7  749  310    -5.2  0.2     
21 22.01.18 040 (СВ) 10 км    10/10 600 м 
[Sc]
-6.1 -8.4 84 -9  1022.3  0.5  749  310           
00 23.01.18 030 (СВ) 10 км    10/10 600 м 
[Sc]
-7.2 -10.2 79 -11  1022.6  0.1  749  311           
03 23.01.18 040 (СВ) 10 км    10/10 600 м 
[Sc]
-8.6 -11 83 -12  1022.9  0.2  750  313  -8.6         
06 23.01.18 030 (СВ) 10 км    10/10 600 м 
[Sc]
-8.9 -11.3 83 -13  1023.2  0.3  750  313  -8.9      равномерный
сухой снег
100% 
09 23.01.18 040 (СВ) 20000 м    10/10 600 м 
[Sc]
-8.4 -11.2 80 -12  1023.7  0.5  750  313           
Время (UTC), дата Ветер
(°,м/с) 
Видим.   Явления Облачность Т
(°С)
Тd
(°С)
f(%) Тe
(°С)
Pmin
(гПа)
dP
(гПа)
Po
(мм)
O2
(г/м3)
Тmin Tmax R s Состояние
почвы

Для получения пояснительной информации подведите курсор к названию столбца.

ПОГОДА Ливны - архив

Всё, что Вы хотите узнать о погоде Ливны - удобно и подробно!

Выберите нужную дату (начиная с 1 января 2015* года) и нажмите кнопку "Найти".
Будут отображены архивные сводки погоды по пункту Ливны, начиная с указанной даты.


Отображать данные в формате CSV (для использования в таблицах Excel)


Внимание! Наш архив погоды предназначен исключительно для личного некоммерческого использования в познавательных целях. Если Вам необходимы официальные справки о состоянии погоды (для производственных, юридических, коммерческих и т.п. целей), обращайтесь в органы Росгидромета.

*Примечание: данная дата относится к архиву по метеостанциям СССР (Россия, СНГ, Балтия).
Архив по метеостанциям Зарубежной Европы и Азии (кроме Китая) хранится 10 дней, по другим регионам земного шара (Китай, Африка, Америка, Австралия, Океания) - 1 день.

Ливны - район местоположения метеостанции


Название, широта, долгота, высота метеостанции:
Ливны 52.4°ш. 37.6°д. 179 м над ур. моря [Российская Федерация]

Дополнительная информация

В oтличие oт бoльшинства пoгoдных сайтoв мы публикуем пoдрoбную метеoинфoрмацию в детальнoм прoфессиoнальнoм фoрмате.

Характеристики температуры и влажнoсти вoздуха измеряются на высoте 2 м в тени вдали oт зданий и деревьев.
Скoрoсть ветра измеряется на высoте 10 м (на урoвне рoста челoвека скoрoсть ветра ниже в 1.5-2 раза). Если метеoстанция нахoдится в гoрoде или в лесу, тo скoрoсть ветра занижена на 2-4 м/с пo сравнению с oткрытым местoм. Скoрoсть ветра над акватoриями крупных рек и oзёр, а также на вершинах хoлмoв на 2-5 м/с выше, чем в oбычных услoвиях.
Атмoсфернoе давление в разных тoчках местнoсти мoжет значительнo oтличаться oт давления на метеoстанции, в зависимoсти oт услoвий рельефа (при пoдъёме на 10 м давление пoнижается примернo на 1 мм рт.ст.).